Regional Weather Roundup
Issued by NWS

Home | Current Version | Previous Version | Graphics & Text | Print | Product List | Glossary On
Versions: 1 2 3 4 5 6 7 8 9 10 11 12 13 14 15 16 17 18 19 20 21 22 23 24 25 26 27 28 29 30 31 32 33 34 35 36 37 38 39 40 41 42 43 44 45 46 47 48 49 50
000
ASUS43 KMPX 210610
RWRMN
WEATHER ROUNDUP FOR MINNESOTA
NATIONAL WEATHER SERVICE TWIN CITIES/CHANHASSEN MN
100 AM CDT MON MAY 21 2018


NOTE: "FAIR" INDICATES FEW OR NO CLOUDS BELOW 12,000 FEET WITH NO
SIGNIFICANT WEATHER AND/OR OBSTRUCTIONS TO VISIBILITY. N/A MEANS
CURRENT SKY AND/OR WEATHER CONDITIONS ARE NOT AVAILABLE.

MNZ060>063-068>070-210700-
   Twin Cities Metro

CITY           SKY/WX    TMP DP  RH WIND       PRES   REMARKS
TWIN CITIES    MOCLDY    60  45  57 SE5       30.14F
6HR MIN TEMP:  60; 6HR MAX TEMP:  71;

ST PAUL        FAIR      59  43  55 CALM      30.15S
CRYSTAL        CLOUDY    58  39  49 S3        30.14S
EDEN PRAIRIE   CLOUDY    62  46  55 E5        30.13S
6HR MIN TEMP:  58; 6HR MAX TEMP:  71;

$$
MNZ001>005-007-008-013>017-022>024-027-028-210700-
   Northwest Minnesota

CITY           SKY/WX    TMP DP  RH WIND       PRES   REMARKS
THIEF RVR FALL FAIR      50  35  56 SE7       30.14S
PARK RAPIDS    FAIR      45  35  68 CALM      30.15S
MAHNOMEN       FAIR      52  36  54 SE3       30.14S
$$
MNZ006-009>011-018-025>026-210700-
   North Central Minnesota

CITY           SKY/WX    TMP DP  RH WIND       PRES   REMARKS
BAUDETTE       FAIR      48  43  82 CALM      30.13S
INTL FALLS     FAIR      41  40  96 CALM      30.13F
6HR MIN TEMP:  41; 6HR MAX TEMP:  74;

GRAND RAPIDS   FAIR      44  35  70 S3        30.18S
WALKER         FAIR      43  37  79 CALM      30.16R
$$
MNZ012-019>021-037-210700-
   Northeast Minnesota

CITY           SKY/WX    TMP DP  RH WIND       PRES   REMARKS
DULUTH         FAIR      47  32  56 CALM      30.17F
6HR MIN TEMP:  45; 6HR MAX TEMP:  66;

HIBBING        FAIR      37  34  89 CALM      30.16F
GRAND MARAIS     N/A     42  34  73 CALM      30.16R
$$
MNZ029>031-032-039>041-046>048-054>057-064-210700-
   West Central Minnesota

CITY           SKY/WX    TMP DP  RH WIND       PRES   REMARKS
ALEXANDRIA     FAIR      55  35  47 E5        30.15S
$$
MNZ033>034-036-042>043-049>051-058-059-210700-
   Central Minnesota

CITY           SKY/WX    TMP DP  RH WIND       PRES   REMARKS
ST CLOUD       FAIR      46  35  65 CALM      30.14S
6HR MIN TEMP:  44; 6HR MAX TEMP:  70;

BRAINERD       FAIR      45  39  79 CALM      30.16S
$$
MNZ037-044-045-052-053-210700-
   East Central Minnesota

CITY           SKY/WX    TMP DP  RH WIND       PRES   REMARKS
$$
MNZ071>073-080-081-089-090-097-098-210700-
   Southwest Minnesota

CITY           SKY/WX    TMP DP  RH WIND       PRES   REMARKS
MARSHALL       CLOUDY    61  52  72 SE7       30.11F
REDWOOD FALLS  CLOUDY    61  51  70 SE10      30.11F
WORTHINGTON    LGT RAIN  55  54  96 E5        30.11F
$$
MNZ065>067-074>077-082>085-091>093-210700-
   South Central Minnesota

CITY           SKY/WX    TMP DP  RH WIND       PRES   REMARKS
MANKATO        CLOUDY    61  52  72 SE9       30.12F
FAIRMONT       PTCLDY    57  52  83 E8        30.12F
$$
MNZ078>079-086>088-094>096-210700-
   Southeast Minnesota

CITY           SKY/WX    TMP DP  RH WIND       PRES   REMARKS
ROCHESTER      CLOUDY    56  51  84 SE8       30.16R
6HR MIN TEMP:  54; 6HR MAX TEMP:  59;

$$
ABBREVIATIONS USED IN REMARKS
   TC - TEMPERATURES IN CELSIUS
  WCI - WIND CHILL INDEX
   HX - HEAT INDEX
  VSB - VISIBILITY
$$



USA.gov is the U.S. government's official web portal to all federal, state and local government web resources and services.